Weather History for Oakland, CA

Change the Weather History Date:

Thursday, January 15, 2015

  Actual Average Record
Temperature  
Mean Temperature 50 °F 49 °F  
Max Temperature 59 °F 57 °F 77 °F (2014)
Min Temperature 40 °F 42 °F 30 °F (1950)
Degree Days  
Heating Degree Days 15 16  
Month to date heating degree days 239 245  
Since 1 July heating degree days 878 1417  
Cooling Degree Days 0 0  
Month to date cooling degree days 0 0  
Year to date cooling degree days 0 0  
Moisture  
Dew Point 45 °F    
Average Humidity 84    
Maximum Humidity 100    
Minimum Humidity 67    
Precipitation  
Precipitation 0.00 in 0.10 in 1.38 in (1956)
Month to date precipitation 0.00 2.71  
Year to date precipitation 0.00 2.71  
Since 1 July precipitation 11.67 10.30  
Sea Level Pressure  
Sea Level Pressure 30.28 in    
Wind  
Wind Speed 4 mph (WNW)    
Max Wind Speed 13 mph    
Max Gust Speed 16 mph    
Visibility 4 miles    
Events Fog    
T = Trace of Precipitation, MM = Missing Value Source: NWS Daily Summary

Daily Weather History Graph

Daily Weather History Graph

Search for Another Location

Airport:

Trip Planner

Search our weather history database for the weather conditions in past years. The results will help you decide how hot, cold, wet, or windy it might be!

Date:

Astronomy

Jan. 15, 2015 Rise Set
Actual Time 7:23 AM PST 5:13 PM PST
Civil Twilight 6:54 AM PST 5:42 PM PST
Nautical Twilight 6:22 AM PST 6:14 PM PST
Astronomical Twilight 5:50 AM PST 6:46 PM PST
Moon 2:24 AM PST (1/15) 1:08 PM PST (1/15)
Length of Visible Light 10h 48m
Length of Day
9h 50m
Waning Crescent, 26% of the Moon is Illuminated
Jan 15
Waning Crescent
Jan 20
New
Jan 26
First Quarter
Feb 3
Full
Feb 11
Last Quarter

Hourly Weather History & Observations

Time (PST) Temp. Windchill Dew Point Humidity Pressure Visibility Wind Dir Wind Speed Gust Speed Precip Events Conditions
12:53 AM 46.9 °F - 43.0 °F 86% 30.28 in 4.0 mi Calm Calm - N/A   Scattered Clouds
1:53 AM 45.0 °F 43.5 °F 42.1 °F 90% 30.28 in 4.0 mi East 3.5 mph - N/A   Clear
2:53 AM 46.0 °F - 43.0 °F 89% 30.28 in 4.0 mi Calm Calm - N/A   Partly Cloudy
3:53 AM 45.0 °F 43.5 °F 43.0 °F 93% 30.29 in 4.0 mi NW 3.5 mph - N/A   Partly Cloudy
4:53 AM 44.1 °F - 41.0 °F 89% 30.27 in 3.0 mi Calm Calm - N/A   Clear
5:53 AM 44.1 °F - 42.1 °F 93% 30.27 in 1.8 mi Calm Calm - N/A Fog Partly Cloudy
6:09 AM 42.8 °F - 42.8 °F 100% 30.27 in 3.0 mi Calm Calm - N/A Fog Partly Cloudy
6:53 AM 44.1 °F - 42.1 °F 93% 30.29 in 2.0 mi Calm Calm - N/A Fog Scattered Clouds
7:27 AM 42.8 °F - 41.0 °F 93% 30.29 in 1.8 mi Calm Calm - N/A Fog Scattered Clouds
7:50 AM 41.0 °F - 39.2 °F 93% 30.29 in 0.5 mi Calm Calm - N/A Fog Fog
7:53 AM 41.0 °F - 39.9 °F 96% 30.29 in 0.5 mi Calm Calm - N/A Fog Fog
8:06 AM 42.8 °F 41.1 °F 41.0 °F 93% 30.29 in 2.0 mi East 3.5 mph - N/A   Mostly Cloudy
8:53 AM 46.9 °F - 46.0 °F 97% 30.32 in 2.5 mi Calm Calm - N/A   Mostly Cloudy
9:27 AM 51.8 °F - 48.2 °F 88% 30.33 in 3.0 mi Calm Calm - N/A   Mostly Cloudy
9:53 AM 51.1 °F - 46.0 °F 83% 30.32 in 3.0 mi SSE 5.8 mph - N/A   Haze
10:53 AM 51.1 °F - 46.9 °F 86% 30.34 in 3.0 mi SSW 4.6 mph - N/A   Overcast
11:53 AM 53.1 °F - 46.9 °F 80% 30.31 in 3.0 mi South 4.6 mph - N/A   Haze
12:53 PM 53.6 °F - 46.4 °F 77% 30.28 in 3.0 mi West 5.8 mph - N/A   Haze
1:53 PM 55.0 °F - 46.9 °F 74% 30.27 in 3.0 mi WNW 9.2 mph - N/A   Haze
2:53 PM 57.9 °F - 46.9 °F 67% 30.27 in 6.0 mi WNW 9.2 mph - N/A   Haze
3:53 PM 55.0 °F - 48.9 °F 80% 30.26 in 5.0 mi NW 5.8 mph - N/A   Haze
4:53 PM 55.9 °F - 48.9 °F 77% 30.26 in 6.0 mi West 3.5 mph - N/A   Haze
5:53 PM 53.1 °F - 48.0 °F 83% 30.25 in 5.0 mi WNW 5.8 mph - N/A   Haze
6:53 PM 54.0 °F - 46.0 °F 75% 30.27 in 6.0 mi NNW 4.6 mph - N/A   Haze
7:53 PM 53.1 °F - 46.0 °F 77% 30.23 in 6.0 mi Calm Calm - N/A   Haze
8:53 PM 53.1 °F - 46.9 °F 80% 30.27 in 5.0 mi NW 9.2 mph - N/A   Haze
9:53 PM 53.1 °F - 46.0 °F 77% 30.27 in 5.0 mi NNE 8.1 mph - N/A   Haze
10:53 PM 52.0 °F - 46.0 °F 80% 30.27 in 5.0 mi SE 5.8 mph - N/A   Haze
11:53 PM 52.0 °F - 48.0 °F 86% 30.27 in 5.0 mi Calm Calm - N/A   Haze